DAL311 KSAN-KSFO

Flight info

Callsign DAL311
Flight time N/A
Altitude 38000
Route PADRZ2 IKAYE RIZIN SPLNT STOKD SERFR SERFR4
Aircraft B738/M-SDE2E3FGHIRWXY/LB1

Departure

Time 2026-05-04 04:18
Airport San Diego International Airport (KSAN)

Arrival

Time N/A
Airport San Francisco International Airport (KSFO)
Time Latitude Longitude Altitude Speed Heading
2026-05-04 04:01 32.73338 -117.20344 22 ft 0 kts 263°
2026-05-04 04:11 32.73339 -117.20340 22 ft 2 kts 263°
2026-05-04 04:11 32.73341 -117.20320 22 ft 2 kts 264°
2026-05-04 04:11 32.73343 -117.20301 22 ft 2 kts 265°
2026-05-04 04:11 32.73343 -117.20281 22 ft 2 kts 284°
2026-05-04 04:12 32.73335 -117.20268 22 ft 1 kts 347°
2026-05-04 04:12 32.73333 -117.20268 22 ft 0 kts 347°
2026-05-04 04:14 32.73376 -117.20279 23 ft 13 kts 356°
2026-05-04 04:14 32.73508 -117.20239 22 ft 24 kts 18°
2026-05-04 04:14 32.73520 -117.20071 22 ft 27 kts 105°
2026-05-04 04:15 32.73459 -117.19821 24 ft 36 kts 106°
2026-05-04 04:15 32.73384 -117.19507 24 ft 43 kts 105°
2026-05-04 04:15 32.73295 -117.19146 23 ft 49 kts 106°
2026-05-04 04:15 32.73196 -117.18737 23 ft 54 kts 106°
2026-05-04 04:16 32.73088 -117.18291 21 ft 54 kts 105°
2026-05-04 04:16 32.73009 -117.17965 22 ft 35 kts 106°
2026-05-04 04:16 32.72950 -117.17730 22 ft 28 kts 105°
2026-05-04 04:16 32.72956 -117.17671 21 ft 7 kts 69°
2026-05-04 04:17 32.73033 -117.17633 21 ft 14 kts 304°
2026-05-04 04:17 32.73062 -117.17752 22 ft 29 kts 285°
2026-05-04 04:17 32.73212 -117.18371 22 ft 124 kts 286°
2026-05-04 04:17 32.73523 -117.19637 182 ft 191 kts 287°
2026-05-04 04:18 32.73990 -117.21193 1152 ft 205 kts 291°
2026-05-04 04:18 32.74561 -117.22639 1856 ft 175 kts 301°
2026-05-04 04:18 32.75305 -117.23741 2447 ft 185 kts 315°
2026-05-04 04:18 32.76285 -117.24755 3618 ft 184 kts 317°
2026-05-04 04:19 32.77212 -117.25931 4456 ft 205 kts 309°
2026-05-04 04:19 32.78125 -117.27309 5179 ft 225 kts 303°
2026-05-04 04:19 32.79102 -117.28977 5432 ft 265 kts 302°
2026-05-04 04:19 32.80158 -117.30970 5613 ft 310 kts 300°
2026-05-04 04:20 32.81335 -117.33355 5297 ft 367 kts 299°
2026-05-04 04:20 32.82587 -117.36129 5913 ft 386 kts 295°
2026-05-04 04:20 32.83836 -117.38920 7411 ft 378 kts 303°
2026-05-04 04:20 32.85420 -117.41010 8845 ft 373 kts 313°
2026-05-04 04:21 32.86618 -117.42384 9946 ft 362 kts 313°
2026-05-04 04:22 32.88419 -117.44360 11448 ft 345 kts 314°
2026-05-04 04:22 32.90217 -117.46245 12371 ft 348 kts 315°
2026-05-04 04:22 32.92111 -117.48173 12554 ft 371 kts 316°
2026-05-04 04:22 32.94171 -117.50235 12328 ft 402 kts 316°
2026-05-04 04:23 32.96381 -117.52422 12348 ft 421 kts 317°
2026-05-04 04:23 32.98443 -117.54855 13125 ft 414 kts 311°
2026-05-04 04:23 33.00442 -117.57243 14330 ft 399 kts 311°
2026-05-04 04:23 33.02390 -117.59508 15511 ft 386 kts 311°
2026-05-04 04:24 33.04178 -117.61535 16344 ft 383 kts 311°